GW2129 Weather Reports


Display with metric or nautical units.
time (UTC)temp
F
wind
direction
speed
MPH
gust
MPH
rain 1hr
in
rain 24hr
in
rain mn
in
humidity
%
barometer
mb
20260831172534 93 252 4.0 5.0 0.00 0.00 0.00 55 1017.9
20260831172029 94 245 2.0 4.0 0.00 0.00 0.00 55 1017.6
20260831171524 94 211 1.0 7.0 0.00 0.00 0.00 55 1018.0
20260831171021 95 233 0.0 3.0 0.00 0.00 0.00 53 1017.8
20260831170517 93 181 1.0 5.0 0.00 0.00 0.00 55 1018.0
20260831170015 94 246 4.0 6.0 0.00 0.00 0.00 56 1017.9
20260831165514 93 255 4.0 6.0 0.00 0.00 0.00 57 1017.9
20260831165012 92 229 2.0 6.0 0.00 0.00 0.00 58 1017.7
20260831164507 91 296 4.0 5.0 0.00 0.00 0.00 61 1018.1
20260831164003 90 85 2.0 3.0 0.00 0.00 0.00 62 1018.1
20260831163457 91 271 2.0 3.0 0.00 0.00 0.00 61 1017.9
20260831162956 90 150 3.0 6.0 0.00 0.00 0.00 62 1017.9
20260831162452 91 267 0.0 5.0 0.00 0.00 0.00 62 1017.7
20260831161949 91 14 0.0 4.0 0.00 0.00 0.00 63 1018.1
20260831161446 91 261 2.0 4.0 0.00 0.00 0.00 63 1018.0
20260831160942 90 315 0.0 2.0 0.00 0.00 0.00 66 1018.0
20260831160441 88 263 1.0 5.0 0.00 0.00 0.00 69 1018.1
20260831155936 88 265 3.0 5.0 0.00 0.00 0.00 69 1017.9
20260831155431 89 228 3.0 5.0 0.00 0.00 0.00 67 1018.0
20260831154926 89 232 2.0 5.0 0.00 0.00 0.00 67 1018.0
20260831154417 89 174 5.0 5.0 0.00 0.00 0.00 67 1018.0
20260831153915 89 244 2.0 6.0 0.00 0.00 0.00 67 1018.0
20260831153411 89 308 2.0 4.0 0.00 0.00 0.00 69 1017.9
20260831152907 89 171 3.0 4.0 0.00 0.00 0.00 69 1018.0
20260831152403 89 175 2.0 7.0 0.00 0.00 0.00 70 1017.8
20260831151858 88 291 1.0 5.0 0.00 0.00 0.00 73 1017.9
20260831151356 87 188 2.0 4.0 0.00 0.00 0.00 73 1018.0
20260831150852 87 77 0.0 3.0 0.00 0.00 0.00 74 1017.9
20260831150348 86 248 3.0 5.0 0.00 0.00 0.00 76 1018.0
20260831145847 86 41 2.0 4.0 0.00 0.00 0.00 76 1017.6
20260831145343 88 301 0.0 6.0 0.00 0.00 0.00 74 1017.8
20260831144839 88 302 2.0 3.0 0.00 0.00 0.00 73 1017.7
20260831144334 87 284 3.0 4.0 0.00 0.00 0.00 76 1017.8
20260831143829 86 208 3.0 3.0 0.00 0.00 0.00 77 1017.5
20260831143324 87 283 2.0 4.0 0.00 0.00 0.00 76 1017.5
20260831142819 86 279 1.0 2.0 0.00 0.00 0.00 77 1017.7
20260831142314 85 348 2.0 6.0 0.00 0.00 0.00 79 1017.5
20260831141809 85 193 1.0 4.0 0.00 0.00 0.00 79 1017.6
20260831141303 84 31 2.0 7.0 0.00 0.00 0.00 81 1017.4
20260831140758 85 249 0.0 4.0 0.00 0.00 0.00 80 1017.5
20260831140252 86 258 0.0 2.0 0.00 0.00 0.00 79 1017.3
20260831135750 85 168 1.0 3.0 0.00 0.00 0.00 81 1017.4
20260831135246 85 303 1.0 2.0 0.00 0.00 0.00 81 1017.4
20260831134742 84 119 0.0 2.0 0.00 0.00 0.00 83 1017.3
20260831134238 82 257 2.0 3.0 0.00 0.00 0.00 85 1017.2
20260831133736 83 322 0.0 2.0 0.00 0.00 0.00 85 1017.2
20260831133231 84 120 0.0 2.0 0.00 0.00 0.00 82 1017.5
20260831132726 83 211 1.0 1.0 0.00 0.00 0.00 84 1017.3
20260831132226 82 78 0.0 2.0 0.00 0.00 0.00 86 1017.1
20260831131721 81 121 0.0 2.0 0.00 0.00 0.00 87 1017.1
20260831131218 80 85 2.0 2.0 0.00 0.00 0.00 91 1017.0
20260831130712 79 89 1.0 2.0 0.00 0.00 0.00 93 1017.0
20260831130208 78 104 0.0 1.0 0.00 0.00 0.00 95 1017.2
20260831125706 77 224 0.0 1.0 0.00 0.00 0.00 95 1017.2
20260831125203 77 108 0.0 3.0 0.00 0.00 0.00 95 1017.0
20260831124657 77 118 1.0 2.0 0.00 0.00 0.00 95 1017.1
20260831124153 77 58 1.0 2.0 0.00 0.00 0.00 96 1017.1
20260831123652 77 57 1.0 1.0 0.00 0.00 0.00 96 1016.9
20260831123151 77 290 1.0 1.0 0.00 0.00 0.00 96 1016.8
20260831122646 76 309 0.0 1.0 0.00 0.00 0.00 96 1016.9
20260831122142 76 305 0.0 1.0 0.00 0.00 0.00 96 1016.8
20260831121641 76 275 0.0 1.0 0.00 0.00 0.00 96 1016.8
20260831121138 76 269 0.0 0.0 0.00 0.00 0.00 96 1016.7
20260831120633 76 156 0.0 1.0 0.00 0.00 0.00 96 1016.9
20260831120128 76 322 0.0 0.0 0.00 0.00 0.00 96 1016.9
20260831115624 76 242 0.0 0.0 0.00 0.00 0.00 96 1016.9
20260831115119 76 256 1.0 1.0 0.00 0.00 0.00 96 1016.7
20260831114618 76 89 0.0 0.0 0.00 0.00 0.00 96 1016.8
20260831114113 76 85 1.0 1.0 0.00 0.00 0.00 96 1016.7
20260831113612 76 22 0.0 0.0 0.00 0.00 0.00 96 1016.9
20260831113108 76 55 0.0 1.0 0.00 0.00 0.00 96 1016.7
20260831112607 76 66 0.0 0.0 0.00 0.00 0.00 96 1016.7
20260831112102 76 55 0.0 0.0 0.00 0.00 0.00 96 1016.8
20260831111558 76 37 0.0 0.0 0.00 0.00 0.00 96 1016.9
20260831111054 76 269 0.0 2.0 0.00 0.00 0.00 96 1016.6
20260831110549 76 235 0.0 2.0 0.00 0.00 0.00 96 1016.6
20260831110044 75 326 0.0 0.0 0.00 0.00 0.00 96 1016.6
20260831105543 75 269 0.0 1.0 0.00 0.00 0.00 95 1016.6
20260831105038 76 325 0.0 1.0 0.00 0.00 0.00 95 1016.7
20260831104534 76 240 0.0 1.0 0.00 0.00 0.00 95 1016.5
20260831104030 76 284 0.0 1.0 0.00 0.00 0.00 95 1016.7
20260831103525 76 241 0.0 2.0 0.00 0.00 0.00 95 1016.6
20260831103021 76 307 0.0 2.0 0.00 0.00 0.00 95 1016.8
20260831102515 76 322 0.0 0.0 0.00 0.00 0.00 95 1016.7
20260831102010 76 333 0.0 0.0 0.00 0.00 0.00 94 1016.6
20260831101505 76 256 0.0 0.0 0.00 0.00 0.00 94 1016.5
20260831101001 76 309 0.0 0.0 0.00 0.00 0.00 94 1016.9
20260831100457 76 309 0.0 0.0 0.00 0.00 0.00 94 1016.9
20260831095952 76 331 0.0 0.0 0.00 0.00 0.00 94 1017.0
20260831095451 77 302 0.0 1.0 0.00 0.00 0.00 93 1016.8
20260831094946 77 269 0.0 1.0 0.00 0.00 0.00 93 1016.8
20260831094442 77 230 0.0 2.0 0.00 0.00 0.00 93 1016.8
20260831093937 77 346 0.0 0.0 0.00 0.00 0.00 93 1016.8
20260831093432 77 272 1.0 2.0 0.00 0.00 0.00 93 1016.8
20260831092929 77 243 1.0 2.0 0.00 0.00 0.00 93 1016.8
20260831092425 77 235 0.0 2.0 0.00 0.00 0.00 92 1016.7
20260831091920 77 257 0.0 1.0 0.00 0.00 0.00 92 1016.9
20260831091415 77 300 0.0 0.0 0.00 0.00 0.00 92 1016.7
20260831090910 77 309 0.0 1.0 0.00 0.00 0.00 92 1016.9
20260831090406 77 255 0.0 2.0 0.00 0.00 0.00 92 1016.8
20260831085902 77 309 0.0 1.0 0.00 0.00 0.00 92 1016.6
20260831085356 77 284 1.0 1.0 0.00 0.00 0.00 92 1016.8
20260831084856 77 242 0.0 1.0 0.00 0.00 0.00 91 1016.7
20260831084352 77 322 0.0 2.0 0.00 0.00 0.00 91 1016.8
20260831083849 77 296 0.0 1.0 0.00 0.00 0.00 91 1016.7
20260831083344 77 256 0.0 1.0 0.00 0.00 0.00 91 1017.0
20260831082843 77 322 0.0 1.0 0.00 0.00 0.00 91 1016.7
20260831082338 77 284 1.0 2.0 0.00 0.00 0.00 90 1016.7
20260831081833 77 304 0.0 2.0 0.00 0.00 0.00 90 1017.0
20260831081329 77 312 1.0 2.0 0.00 0.00 0.00 90 1017.0
20260831080825 77 241 0.0 2.0 0.00 0.00 0.00 90 1016.8
20260831080324 77 325 0.0 2.0 0.00 0.00 0.00 89 1017.0
20260831075820 77 256 0.0 1.0 0.00 0.00 0.00 89 1016.8
20260831075315 77 304 0.0 1.0 0.00 0.00 0.00 89 1017.0
20260831074810 77 131 0.0 1.0 0.00 0.00 0.00 88 1017.0
20260831074308 77 223 0.0 0.0 0.00 0.00 0.00 88 1017.0
20260831073805 77 269 0.0 2.0 0.00 0.00 0.00 88 1016.8
20260831073303 77 292 1.0 2.0 0.00 0.00 0.00 87 1016.7
20260831072758 77 245 0.0 2.0 0.00 0.00 0.00 87 1016.9
20260831072255 77 232 1.0 1.0 0.00 0.00 0.00 87 1016.9
20260831071750 77 206 2.0 2.0 0.00 0.00 0.00 87 1017.0
20260831071245 77 310 0.0 1.0 0.00 0.00 0.00 86 1017.0
20260831070744 78 327 0.0 1.0 0.00 0.00 0.00 86 1016.9
20260831070243 78 240 0.0 2.0 0.00 0.00 0.00 86 1017.0
20260831065743 78 250 0.0 2.0 0.00 0.00 0.00 85 1017.2
20260831065241 78 284 0.0 2.0 0.00 0.00 0.00 85 1017.3
20260831064737 78 244 0.0 1.0 0.00 0.00 0.00 85 1017.2
20260831064231 78 277 0.0 1.0 0.00 0.00 0.00 84 1017.1
20260831063727 78 286 0.0 1.0 0.00 0.00 0.00 84 1017.3
20260831063222 79 240 0.0 2.0 0.00 0.00 0.00 83 1017.1
20260831062722 79 250 0.0 1.0 0.00 0.00 0.00 83 1017.0
20260831062217 79 242 0.0 3.0 0.00 0.00 0.00 82 1017.2
20260831061715 79 290 1.0 3.0 0.00 0.00 0.00 82 1017.1
20260831061211 79 219 4.0 4.0 0.00 0.00 0.00 81 1017.0
20260831060707 80 239 3.0 4.0 0.00 0.00 0.00 81 1016.8
20260831060206 80 176 1.0 3.0 0.00 0.00 0.00 81 1017.0
20260831055701 80 108 0.0 3.0 0.00 0.00 0.00 81 1016.9
20260831055156 80 189 2.0 3.0 0.00 0.00 0.00 80 1017.0
20260831054655 80 143 0.0 3.0 0.00 0.00 0.00 80 1017.0
20260831054150 80 135 0.0 4.0 0.00 0.00 0.00 79 1017.2
20260831053644 80 218 0.0 3.0 0.00 0.00 0.00 79 1017.1
20260831053143 80 309 0.0 2.0 0.00 0.00 0.00 78 1017.0
20260831052643 81 322 2.0 4.0 0.00 0.00 0.00 77 1017.0
20260831052142 81 235 2.0 3.0 0.00 0.00 0.00 77 1016.8
20260831051640 81 300 2.0 2.0 0.00 0.00 0.00 76 1016.8
20260831051139 81 281 1.0 3.0 0.00 0.00 0.00 76 1016.6
20260831050633 81 206 2.0 3.0 0.00 0.00 0.00 75 1016.6
20260831050127 82 295 0.0 3.0 0.00 0.00 0.00 74 1016.6
20260831045626 82 158 4.0 4.0 0.00 0.00 0.00 74 1016.7
20260831045121 82 234 2.0 2.0 0.00 0.00 0.00 73 1016.9
20260831044617 82 194 1.0 2.0 0.00 0.00 0.00 72 1016.7
20260831044112 82 131 2.0 3.0 0.00 0.00 0.00 72 1016.7
20260831043608 82 269 0.0 3.0 0.00 0.00 0.00 72 1016.3
20260831043103 83 256 0.0 2.0 0.00 0.00 0.00 71 1016.4
20260831042602 83 82 0.0 2.0 0.00 0.00 0.00 70 1016.4
20260831042057 83 121 3.0 5.0 0.00 0.00 0.00 70 1016.6
20260831041552 84 135 0.0 2.0 0.00 0.00 0.00 70 1016.5
20260831041051 84 137 1.0 5.0 0.00 0.00 0.00 69 1016.5
20260831040545 84 277 0.0 3.0 0.00 0.00 0.00 68 1016.5
20260831040040 84 304 1.0 2.0 0.00 0.00 0.00 68 1016.6
20260831035537 84 125 3.0 3.0 0.00 0.00 0.00 67 1016.4
20260831035033 84 231 0.0 2.0 0.00 0.00 0.00 66 1016.5
20260831034532 85 205 0.0 3.0 0.00 0.00 0.00 66 1016.3
20260831034028 85 183 2.0 4.0 0.00 0.00 0.00 65 1016.2
20260831033524 85 189 1.0 3.0 0.00 0.00 0.00 65 1016.2
20260831033019 86 160 2.0 3.0 0.00 0.00 0.00 64 1016.0
20260831032518 86 34 0.0 4.0 0.00 0.00 0.00 63 1015.8
20260831032014 86 122 0.0 3.0 0.00 0.00 0.00 63 1016.1
20260831031513 86 199 0.0 4.0 0.00 0.00 0.00 62 1015.8
20260831031013 86 147 4.0 7.0 0.00 0.00 0.00 61 1015.8
20260831030512 86 0 0.0 3.0 0.00 0.00 0.00 61 1015.9
20260831030012 87 189 3.0 3.0 0.00 0.00 0.00 61 1015.6
20260831025509 87 137 0.0 2.0 0.00 0.00 0.00 60 1015.6
20260831025005 87 107 0.0 5.0 0.00 0.00 0.00 60 1015.3
20260831024455 88 9 0.0 11.0 0.00 0.00 0.00 59 1015.0
20260831023954 88 73 2.0 4.0 0.00 0.00 0.00 59 1015.1
20260831023452 88 109 4.0 6.0 0.00 0.00 0.00 58 1015.0
20260831022947 88 220 1.0 9.0 0.00 0.00 0.00 58 1014.7
20260831022446 88 142 2.0 10.0 0.00 0.00 0.00 58 1014.7
20260831021941 88 160 2.0 5.0 0.00 0.00 0.00 58 1014.6
20260831021440 88 131 6.0 7.0 0.00 0.00 0.00 59 1014.3
20260831020937 88 139 2.0 3.0 0.00 0.00 0.00 59 1014.5
20260831020436 88 140 2.0 2.0 0.00 0.00 0.00 60 1014.2
20260831015931 88 243 0.0 1.0 0.00 0.00 0.00 60 1014.1
20260831015428 88 287 0.0 3.0 0.00 0.00 0.00 60 1014.2
20260831014922 88 269 0.0 1.0 0.00 0.00 0.00 59 1014.1
20260831014417 88 244 0.0 3.0 0.00 0.00 0.00 59 1014.1
20260831013913 89 291 2.0 2.0 0.00 0.00 0.00 59 1014.2
20260831013408 89 290 2.0 2.0 0.00 0.00 0.00 58 1014.0
20260831012902 89 204 1.0 5.0 0.00 0.00 0.00 57 1014.0
20260831012357 90 286 1.0 4.0 0.00 0.00 0.00 57 1014.2
20260831011852 90 235 1.0 3.0 0.00 0.00 0.00 57 1013.9
20260831011346 90 128 4.0 6.0 0.00 0.00 0.00 56 1013.9
20260831010843 90 241 2.0 3.0 0.00 0.00 0.00 56 1013.9
20260831010342 90 228 0.0 7.0 0.00 0.00 0.00 56 1013.9
20260831005838 91 160 3.0 6.0 0.00 0.00 0.00 55 1013.7
20260831005333 91 81 0.0 5.0 0.00 0.00 0.00 55 1013.5
20260831004828 91 149 2.0 7.0 0.00 0.00 0.00 54 1013.8
20260831004324 91 247 3.0 6.0 0.00 0.00 0.00 53 1013.5
20260831003820 92 177 0.0 5.0 0.00 0.00 0.00 52 1013.3
20260831003316 93 160 3.0 7.0 0.00 0.00 0.00 50 1013.5
20260831002815 93 154 1.0 4.0 0.00 0.00 0.00 46 1013.6
20260831002314 94 188 4.0 5.0 0.00 0.00 0.00 46 1013.3
20260831001810 94 230 0.0 3.0 0.00 0.00 0.00 46 1013.3
20260831001305 95 177 0.0 4.0 0.00 0.00 0.00 45 1013.3
20260831000803 95 88 2.0 5.0 0.00 0.00 0.00 45 1013.1
20260831000303 95 116 2.0 6.0 0.00 0.00 0.00 44 1013.2
20260830235801 95 101 2.0 5.0 0.00 0.00 0.00 44 1013.2
20260830235256 95 194 0.0 2.0 0.00 0.00 0.00 45 1013.2
20260830234751 94 269 0.0 1.0 0.00 0.00 0.00 46 1013.2
20260830234247 94 219 0.0 2.0 0.00 0.00 0.00 46 1013.1
20260830233742 94 215 1.0 3.0 0.00 0.00 0.00 46 1013.3
20260830233238 94 217 0.0 3.0 0.00 0.00 0.00 46 1013.4
20260830232733 94 71 0.0 3.0 0.00 0.00 0.00 45 1013.4
20260830232229 95 117 0.0 2.0 0.00 0.00 0.00 45 1013.3
20260830231725 95 185 1.0 3.0 0.00 0.00 0.00 44 1013.6
20260830231225 96 208 1.0 4.0 0.00 0.00 0.00 43 1013.5
20260830230720 95 155 2.0 3.0 0.00 0.00 0.00 43 1013.4
20260830230215 96 163 3.0 5.0 0.00 0.00 0.00 42 1013.4
20260830225709 96 211 1.0 3.0 0.00 0.00 0.00 41 1013.7
20260830225204 98 204 1.0 3.0 0.00 0.00 0.00 40 1013.6
20260830224702 98 151 2.0 5.0 0.00 0.00 0.00 39 1013.4
20260830224159 99 274 3.0 4.0 0.00 0.00 0.00 39 1013.6
20260830223655 100 206 1.0 2.0 0.00 0.00 0.00 40 1013.5
20260830223150 100 230 2.0 5.0 0.00 0.00 0.00 39 1013.6
20260830222644 99 267 3.0 5.0 0.00 0.00 0.00 41 1013.7
20260830222140 99 256 2.0 3.0 0.00 0.00 0.00 40 1013.7
20260830221636 97 141 1.0 5.0 0.00 0.00 0.00 41 1013.5
20260830221132 97 219 3.0 9.0 0.00 0.00 0.00 42 1013.6
20260830220627 98 177 0.0 3.0 0.00 0.00 0.00 42 1013.6
20260830220126 98 136 1.0 7.0 0.00 0.00 0.00 42 1013.6
20260830215625 99 161 0.0 2.0 0.00 0.00 0.00 42 1013.9
20260830215119 98 230 2.0 5.0 0.00 0.00 0.00 41 1013.7
20260830214614 98 242 1.0 5.0 0.00 0.00 0.00 43 1013.8
20260830214104 99 168 0.0 4.0 0.00 0.00 0.00 42 1013.9
20260830213603 98 130 3.0 3.0 0.00 0.00 0.00 42 1013.9
20260830213059 97 233 0.0 2.0 0.00 0.00 0.00 43 1013.9
20260830212554 100 154 4.0 10.0 0.00 0.00 0.00 41 1014.0
20260830212049 100 179 2.0 4.0 0.00 0.00 0.00 41 1014.1
20260830211544 99 132 3.0 6.0 0.00 0.00 0.00 42 1014.2
20260830211043 97 268 2.0 4.0 0.00 0.00 0.00 41 1014.2
20260830210538 100 102 4.0 4.0 0.00 0.00 0.00 42 1014.4
20260830210032 99 191 2.0 9.0 0.00 0.00 0.00 41 1014.6
20260830205530 100 206 3.0 6.0 0.00 0.00 0.00 40 1014.7
20260830205026 100 294 2.0 3.0 0.00 0.00 0.00 43 1014.9
20260830204525 100 276 3.0 6.0 0.00 0.00 0.00 41 1014.6
20260830204024 99 247 1.0 6.0 0.00 0.00 0.00 43 1014.9
20260830203520 99 209 5.0 5.0 0.00 0.00 0.00 43 1015.1
20260830203010 99 172 3.0 5.0 0.00 0.00 0.00 42 1015.1
20260830202504 99 284 2.0 4.0 0.00 0.00 0.00 44 1015.0
20260830202000 99 267 1.0 4.0 0.00 0.00 0.00 43 1015.3
20260830201459 97 225 4.0 7.0 0.00 0.00 0.00 45 1015.3
20260830200955 94 258 2.0 3.0 0.00 0.00 0.00 49 1015.3
20260830200454 94 122 2.0 3.0 0.00 0.00 0.00 50 1015.3
20260830195954 95 102 4.0 6.0 0.00 0.00 0.00 48 1015.4
20260830195449 96 158 5.0 6.0 0.00 0.00 0.00 47 1015.5
20260830194948 95 105 3.0 5.0 0.00 0.00 0.00 48 1015.6
20260830194447 95 79 2.0 4.0 0.00 0.00 0.00 47 1015.9
20260830193942 95 105 4.0 6.0 0.00 0.00 0.00 48 1015.9
20260830193440 96 66 2.0 5.0 0.00 0.00 0.00 51 1015.8
20260830192936 98 147 2.0 4.0 0.00 0.00 0.00 46 1016.0
20260830192432 97 348 2.0 4.0 0.00 0.00 0.00 48 1016.0
20260830191927 93 187 2.0 4.0 0.00 0.00 0.00 52 1016.2
20260830191426 93 200 2.0 4.0 0.00 0.00 0.00 51 1016.1
20260830190922 94 306 2.0 5.0 0.00 0.00 0.00 49 1016.1
20260830190417 94 183 0.0 7.0 0.00 0.00 0.00 50 1016.3
20260830185916 93 149 2.0 7.0 0.00 0.00 0.00 51 1016.7
20260830185412 95 141 3.0 7.0 0.00 0.00 0.00 50 1016.4
20260830184907 93 301 2.0 4.0 0.00 0.00 0.00 51 1016.6
20260830184406 93 150 5.0 7.0 0.00 0.00 0.00 50 1016.7
20260830183906 92 303 1.0 5.0 0.00 0.00 0.00 54 1016.7
20260830183400 94 302 2.0 5.0 0.00 0.00 0.00 51 1017.0
20260830182855 95 133 2.0 3.0 0.00 0.00 0.00 52 1017.0
20260830182351 95 275 2.0 3.0 0.00 0.00 0.00 54 1017.0
20260830181848 93 314 0.0 2.0 0.00 0.00 0.00 54 1017.1
20260830181343 93 222 3.0 3.0 0.00 0.00 0.00 54 1017.3
20260830180843 92 209 2.0 4.0 0.00 0.00 0.00 55 1017.3
20260830180337 92 215 0.0 6.0 0.00 0.00 0.00 55 1017.6
20260830175836 94 238 3.0 4.0 0.00 0.00 0.00 53 1017.4
20260830175331 92 120 1.0 3.0 0.00 0.00 0.00 58 1017.7
20260830174826 92 310 1.0 2.0 0.00 0.00 0.00 56 1017.8
20260830174321 90 241 3.0 6.0 0.00 0.00 0.00 59 1017.8
20260830173821 92 304 4.0 5.0 0.00 0.00 0.00 58 1017.7
20260830173317 92 220 4.0 5.0 0.00 0.00 0.00 57 1017.8
20260830172813 93 284 2.0 9.0 0.00 0.00 0.00 56 1017.7